User: anonymous   Login
Location: El Bakhil
(32.7726°N, 5.5387°W)
Time: 00:33:16
(UTC+00:00)
Language:

DIWATA 2B (PO-101) - Orbit

View from above orbital plane
View from above orbital plane
View from above satellite
View from above satellite

Ground track
Ground track

The orbit data is extracted from the following two-line orbital elements,

1 43678U 18084H   21216.41287012 -.00000121  00000-0 -62190-5 0  9995
2 43678  97.9296 341.9532 0008435 249.3716 110.6584 14.91769992150582
Epoch (UTC): 04 August 2021 09:54:31
Eccentricity: 0.0008435
inclination: 97.9296°
perigee height: 586 km
apogee height: 598 km
right ascension of ascending node: 341.9532°
argument of perigee: 249.3716°
revolutions per day: 14.91769992
mean anomaly at epoch: 110.6584°
orbit number at epoch: 15058

The dashed part of the orbit path shows where the satellite is in the earth's shadow,  

DLR